This demonstration page uses our WeatherBlox Daily Observations layout. Learn more.

Left ArrowRight Arrow

39.01783, -85.05884

Hourly Observations for June 8, 2018

Temp ( °F °C ) Dew Point ( °F °C ) Humidity (%) Winds ( mph kmh ) Pressure ( in mb ) Visibility ( mi km ) Precip ( " mm )
12:52 am 00:52 Mostly Cloudy 75 23.9 60 15.6 60 60 N N/A 30.07 1018 10 16 N/A
1:52 am 01:52 Mostly Cloudy 67 19.4 62 16.7 84 84 S 6 9 30.06 1018 10 16 N/A
2:52 am 02:52 Cloudy 71 21.7 61 16.1 71 71 SSW 7 11 30.04 1017 10 16 N/A
3:52 am 03:52 Cloudy 73 22.8 61 16.1 66 66 N N/A 30.06 1018 10 16 N/A
4:52 am 04:52 Cloudy 67 19.4 62 16.7 84 84 SSW 5 7 30.07 1018 10 16 N/A
5:52 am 05:52 Cloudy 68 20 63 17.2 84 84 S 5 7 30.08 1019 10 16 N/A
6:52 am 06:52 Mostly Cloudy 69 20.6 63 17.2 81 81 S 3 6 30.10 1019 10 16 N/A
7:52 am 07:52 Mostly Cloudy 73 22.8 64 17.8 74 74 S 5 7 30.12 1020 10 16 N/A
8:52 am 08:52 Mostly Cloudy 77 25 62 16.7 60 60 SW 5 7 30.13 1020 10 16 N/A
9:52 am 09:52 Cloudy 77 25 63 17.2 62 62 SW 5 7 30.14 1021 10 16 N/A
10:52 am 10:52 Mostly Cloudy 81 27.2 64 17.8 57 57 WSW 6 9 30.13 1020 10 16 N/A
11:52 am 11:52 Cloudy 82 27.8 66 18.9 58 58 S 7 11 30.13 1020 10 16 N/A
12:52 pm 12:52 Cloudy 82 27.8 67 19.4 60 60 S 5 7 30.13 1020 10 16 N/A
1:52 pm 13:52 Mostly Cloudy 85 29.4 68 20 57 57 S 8 13 30.12 1020 10 16 N/A
2:52 pm 14:52 Mostly Cloudy 87 30.6 68 20 53 53 W 6 9 30.10 1019 10 16 N/A
3:52 pm 15:52 Cloudy 87 30.6 67 19.4 51 51 WSW 9 15 30.08 1019 10 16 N/A
4:52 pm 16:52 Cloudy 86 30 68 20 55 55 SSW 7 11 30.07 1018 10 16 N/A
5:52 pm 17:52 Cloudy 86 30 67 19.4 53 53 SSW 10 17 30.06 1018 10 16 N/A
6:52 pm 18:52 Cloudy 86 30 68 20 55 55 VRB 6 9 30.08 1019 10 16 N/A
7:09 pm 19:09 Cloudy with Thunderstorms 78 25.6 64 17.8 62 62 SSE 6 9 30.09 1019 10 16 N/A
7:52 pm 19:52 Cloudy 75 23.9 63 17.2 66 66 E 15 24 30.11 1020 10 16 N/A
8:42 pm 20:42 Cloudy 71 21.7 64 17.8 79 79 E 15 24 30.12 1020 10 16 N/A
8:52 pm 20:52 Cloudy with Nearby Thunderstorms 71 21.7 63 17.2 76 76 E 18 30 30.12 1020 10 16 N/A
9:11 pm 21:11 Cloudy 71 21.7 63 17.2 76 76 ESE 13 20 30.12 1020 10 16 N/A
9:52 pm 21:52 Cloudy 71 21.7 64 17.8 79 79 ENE 17 28 30.14 1021 10 16 N/A
10:11 pm 22:11 Mostly Cloudy with Nearby Thunderstorms 70 21.1 64 17.8 82 82 SE 15 24 30.12 1020 10 16 N/A
10:40 pm 22:40 Partly Cloudy 71 21.7 63 17.2 76 76 E 9 15 30.12 1020 10 16 N/A
10:52 pm 22:52 Partly Cloudy 70 21.1 62 16.7 76 76 SE 8 13 30.13 1020 10 16 N/A
11:52 pm 23:52 Partly Cloudy 69 20.6 62 16.7 78 78 E 6 9 30.13 1020 10 16 N/A

Powered by AerisWeather